OBJECT AY, 61781

Orbit data source: Space-Track

You're viewing an uncataloged RSO

Recently launched and/or uncataloged RSOs may have evolving metadata. Metadata may include the following, but is not limited to: Owner, Manufacturer, Bus, Motor, and Mission.

OBJECT AY, 61781 is a satellite in SSO that was launched on Mon, 04 Nov 2024 UTC via a SOYUZ-2-1B launch vehicle from the Vostochny Cosmodrome (VOSTO). Unknown objects in Earth's orbit typically refer to objects detected orbiting the Earth but have not yet been identified or cataloged. These objects could be anything from previously untracked satellites, spent rocket stages, debris from satellite collisions, or even natural meteoroids temporarily captured by Earth's gravity.

Loading next visibility...
Identifier
61781, 2024-199AY
Orbit
SSO
Country
Flag of TBDTBD
Related business
Flag of RUAmur State University (RU)
Manufacturer
AMGU/HARB
Mission
Operational Amateur Communications
Bus & Motor
CUBESAT 12U, Unknown motor
Mass
~15 kg wet, ~15 kg dry
Launch date (UTC)
2024-11-04 (2 years ago)
Launch vehicle
SOYUZ-2-1B
Launch site
Vostochny Cosmodrome (VOSTO)
Object type
Unknown
Shape & HBR
Box, 0.3 m
Radar Cross Section
0.135 m², Medium (>0.1 m² and < 1m²)

Expand to show TLE details & history
Last TLE update: 9 hours ago

TLE from 9 hours ago
0 OBJECT AY
1 61781U 24199AY  26264.23684288  .00005455  00000-0  15304-3 0  9994
2 61781  97.2839 132.0467 0012381 330.8722  29.1831 15.36918585148677
Epoch: 2026-09-21T05:41Z
TLE epoch observation values (Epoch: 2026-09-21T05:41:03.224Z)
Latitude
-0.00001°
Longitude
46.66371°
Altitude
450.959 km
Speed
7.646 km/s
True Right ascension
08h 48m 11s
True Declination
0° 00' 00"
Sunlit
Object was in daylight at epoch
Visualization orbit readout
Latitude
Unknown
Longitude
Unknown
Altitude
Unknown
Speed
Unknown
Apparent Right ascension
Unknown
Apparent Declination
Unknown
Sunlit
N/A
Visualization observer readout
Local Sidereal Time
08:08:21
Azimuth
Unknown
Elevation
Unknown
Doppler factor
Unknown
Orbital elements
Apogee altitude
460.622 km
Perigee altitude
443.709 km
Semi-major axis
6,830.303 km
Eccentricity
0.00124
Inclination
97.2839°
RAAN
132.0467°
Arg. of periapsis
330.8722°
True anomaly
29.25237°
Mean anomaly
29.1831°
Eccentric anomaly
29.21773°
Mean motion
3.84488 °/min
Orbital period
93.63 mins
BSTAR
0.00015304
Loading maneuver chart data...
Computing Atmospheric mass density...
Loading historical data...
Loading historical data...
Loading historical data...
Loading historical data...
Loading historical data...
Loading historical data...
Loading historical data...

Documentation

Showing up to 5 results
|